Temperature
7 7 7 6 6 6 6 6 6 6 6 6 6 6 6 6 6 5 5 5 5 5 5 4 4 4 4 4 4 4 3 3 3 3 4 4 4 4 4 4 4 4 4
6 6 6 6 6 6 6 6 6 5 5 5 5 5 5 5 5 5 5 5 5 4 4 4 4 4 4 4 3 3 3 3 3 3 3 3 3 3 3 3 3 3 3
6 5 5 5 5 5 5 5 5 5 5 5 5 5 5 5 5 5 5 4 4 4 4 4 4 3 3 3 3 3 3 3 3 2 3 3 3 3 3 3 3 3 3
5 5 5 5 5 5 5 5 4 4 5 4 4 4 4 4 4 4 4 4 4 4 3 3 3 3 3 3 3 3 3 3 2 2 2 2 2 2 2 2 3 3 3
4 4 4 4 4 4 4 4 4 4 4 4 4 4 4 4 4 4 3 3 3 3 3 3 3 3 2 2 2 2 2 2 2 2 2 2 2 2 2 2 2 2 2
4 4 4 4 4 4 4 4 4 3 3 3 3 3 3 3 3 3 3 3 3 3 3 3 2 2 2 2 2 2 2 2 1 1 1 1 1 1 1 1 1 1 1
3 3 3 3 3 3 3 3 3 3 3 3 3 2 3 3 2 2 2 2 2 2 2 2 2 2 2 2 2 2 2 1 1 1 1 1 1 1 1 1 1 1 1
3 3 2 2 2 2 3 3 2 2 2 2 2 2 2 2 2 2 2 2 2 2 1 1 1 1 1 1 1 1 1 1 1 0 0 0 1 1 1 0 0 0 1
2 2 2 2 2 2 2 2 2 2 2 1 1 1 1 1 1 1 1 1 1 1 1 1 1 1 1 0 0 0 0 0 0 0 0 0 0 0 0 -0 -0 0 0
1 1 1 1 1 1 1 1 1 1 1 1 1 1 1 1 1 1 0 0 0 -0 -0 0 -0 -0 -0 -0 -0 -0 -0 -0 -0 -0 -0 -0 -0 -0 -0 -0 -1 -1 -1
1 1 1 1 1 1 1 1 0 0 0 0 0 0 0 0 0 -0 -0 -1 -1 -1 -1 -1 -1 -1 -1 -1 -1 -1 -1 -1 -1 -1 -1 -0 -0 -0 -0 -0 -1 -1 -1
0 0 0 0 0 0 0 0 -0 -0 -0 -0 -0 -0 -0 -1 -1 -1 -1 -1 -1 -1 -1 -1 -1 -1 -1 -1 -1 -1 -1 -1 -1 -1 -1 -1 -1 -1 -1 -1 -1 -1 -1
-0 -0 -0 -0 -0 -0 -0 -0 -0 -1 -1 -1 -1 -1 -1 -1 -1 -2 -2 -2 -2 -2 -2 -2 -2 -2 -2 -2 -2 -2 -2 -2 -1 -1 -1 -1 -1 -1 -1 -1 -1 -1 -1
-1 -1 -1 -1 -1 -1 -1 -1 -1 -1 -1 -2 -2 -2 -2 -2 -2 -2 -2 -2 -2 -2 -2 -2 -2 -2 -2 -2 -2 -2 -2 -2 -2 -2 -2 -2 -2 -2 -2 -1 -1 -1 -1
-2 -2 -2 -2 -2 -1 -1 -1 -2 -2 -2 -2 -3 -3 -3 -2 -2 -2 -3 -2 -2 -2 -2 -2 -2 -2 -2 -2 -2 -2 -2 -3 -2 -2 -2 -2 -2 -2 -2 -2 -2 -2 -2
-2 -2 -2 -2 -2 -2 -2 -2 -2 -3 -3 -3 -3 -3 -3 -3 -3 -3 -3 -3 -3 -3 -3 -3 -3 -3 -3 -3 -3 -3 -3 -3 -3 -3 -3 -2 -2 -2 -2 -2 -2 -2 -2
-3 -3 -3 -3 -3 -3 -3 -3 -3 -3 -3 -3 -3 -3 -3 -3 -3 -3 -3 -3 -3 -3 -3 -3 -3 -3 -3 -3 -3 -3 -3 -3 -3 -3 -3 -2 -2 -2 -2 -2 -2 -2 -2
-3 -3 -3 -3 -3 -3 -3 -4 -4 -4 -4 -4 -4 -4 -4 -4 -4 -3 -3 -3 -3 -3 -3 -3 -3 -3 -3 -3 -3 -3 -3 -3 -3 -3 -3 -3 -3 -3 -3 -3 -3 -3 -3
-4 -4 -4 -4 -4 -4 -4 -4 -4 -5 -5 -4 -4 -4 -4 -4 -4 -4 -4 -3 -4 -4 -4 -4 -4 -4 -4 -4 -4 -4 -3 -3 -3 -3 -3 -3 -3 -3 -3 -3 -3 -3 -3
-4 -4 -4 -4 -4 -4 -4 -5 -5 -5 -5 -5 -5 -5 -4 -4 -4 -4 -4 -4 -4 -4 -4 -4 -4 -4 -4 -4 -4 -4 -4 -3 -3 -3 -3 -3 -3 -3 -3 -3 -3 -3 -3
-5 -5 -5 -5 -5 -5 -5 -5 -5 -5 -5 -5 -5 -5 -5 -5 -5 -5 -4 -4 -4 -4 -5 -4 -4 -4 -4 -4 -4 -4 -4 -4 -4 -4 -4 -4 -4 -3 -3 -4 -4 -4 -4
-5 -5 -5 -5 -5 -6 -6 -6 -6 -6 -6 -6 -5 -5 -5 -5 -5 -5 -5 -5 -5 -5 -5 -5 -5 -4 -4 -4 -4 -4 -4 -4 -4 -4 -4 -4 -4 -4 -4 -4 -4 -4 -4
-6 -6 -6 -6 -6 -6 -6 -6 -6 -6 -6 -6 -6 -5 -5 -5 -5 -5 -5 -5 -5 -5 -5 -5 -5 -4 -4 -4 -4 -4 -4 -4 -4 -4 -4 -4 -4 -4 -4 -4 -4 -4 -4
-6 -6 -6 -6 -6 -6 -7 -7 -7 -6 -6 -6 -6 -6 -6 -5 -5 -6 -6 -6 -6 -6 -5 -5 -5 -5 -4 -4 -4 -4 -4 -4 -4 -4 -4 -4 -4 -4 -4 -4 -4 -4 -4
-7 -7 -7 -7 -7 -7 -7 -7 -7 -7 -6 -6 -6 -6 -6 -6 -6 -6 -6 -6 -6 -6 -6 -5 -5 -5 -5 -4 -4 -4 -4 -4 -4 -4 -4 -4 -4 -4 -4 -4 -4 -4 -4
-7 -7 -7 -7 -7 -7 -7 -7 -7 -7 -7 -7 -7 -6 -6 -6 -6 -6 -6 -6 -6 -6 -6 -5 -5 -5 -5 -5 -4 -4 -4 -4 -4 -4 -4 -4 -4 -4 -4 -4 -4 -4 -5
Wind_Speed
2 2 1 1 1 1 1 2 3 3 3 3 4 4 4 4 3 3 4 5 5 5 5 6 7 6 5 5 4 5 5 6 9 8 6 5 6 7 9 9 10 9 10
1 1 1 0 0 0 1 2 2 2 2 3 3 3 4 3 3 3 5 5 5 5 6 6 7 6 6 5 4 5 5 6 7 10 8 6 7 7 7 8 8 9 8
1 1 1 1 0 1 2 2 2 2 2 2 2 3 4 4 4 4 4 5 5 5 5 6 6 5 6 5 5 5 5 6 5 7 9 7 6 6 7 7 7 7 8
1 1 1 0 1 1 1 1 2 2 2 2 2 3 3 3 3 3 3 4 4 4 4 5 5 5 6 6 5 6 5 5 5 6 7 7 6 6 5 6 7 6 7
2 1 1 1 1 1 1 2 2 1 2 2 2 2 2 2 3 3 3 4 4 4 4 4 5 6 8 7 6 5 5 5 5 6 7 7 6 6 6 5 7 7 7
2 2 2 2 2 1 2 2 2 2 2 2 2 2 3 3 5 6 5 3 3 4 4 5 5 6 7 8 9 9 8 6 6 6 7 8 8 7 6 6 6 7 7
2 2 2 2 2 2 2 2 2 2 2 2 2 2 3 4 5 6 6 4 3 3 3 4 5 5 7 5 7 8 8 9 10 8 8 9 8 7 6 6 6 7 7
3 3 3 2 2 3 2 2 3 2 2 2 3 3 3 4 6 6 6 4 3 3 3 4 4 5 5 6 5 5 6 6 7 6 7 8 8 7 6 6 6 6 6
3 3 3 3 3 3 3 3 3 2 2 2 2 2 3 4 5 6 6 3 3 4 4 4 4 4 7 8 5 5 5 6 7 8 8 8 9 9 7 4 4 4 5
3 3 3 3 3 3 3 3 3 2 2 3 3 3 3 4 5 5 5 2 3 4 4 4 5 6 7 7 4 4 5 6 6 7 7 8 7 7 7 4 4 4 4
3 3 3 3 3 3 2 2 2 2 2 2 3 3 3 3 5 5 5 2 2 3 4 4 4 6 7 7 5 3 5 6 5 5 5 5 5 4 4 4 3 3 3
3 3 3 3 3 3 2 3 2 1 2 3 3 3 3 3 4 5 6 5 4 3 4 4 4 6 6 7 5 5 6 6 3 3 4 4 4 4 4 4 4 3 3
3 3 3 4 3 3 2 2 2 1 1 2 3 3 4 3 4 6 6 6 6 4 3 5 5 6 6 5 5 7 6 3 3 3 4 4 4 4 4 3 4 4 4
3 3 3 3 4 3 3 2 2 2 2 2 3 3 4 4 4 3 3 4 4 4 4 4 5 6 5 5 5 4 3 3 3 3 4 4 3 3 3 3 2 3 2
3 3 3 3 3 3 3 2 3 2 3 3 3 3 3 4 5 6 4 3 3 3 3 2 2 3 3 3 3 3 3 3 3 3 3 3 3 3 3 3 2 2 1
3 3 3 3 3 2 3 4 5 4 6 6 5 5 4 5 7 7 7 6 5 4 3 2 2 2 3 3 3 3 3 3 3 3 3 3 3 2 2 3 2 2 2
3 3 3 3 3 3 3 3 4 5 6 6 6 6 6 6 6 6 6 5 5 4 2 2 2 2 2 2 2 3 3 3 3 3 3 2 2 2 2 2 2 2 2
3 4 4 3 3 3 3 3 3 3 4 4 5 6 6 6 6 6 5 4 3 3 1 1 2 2 2 2 3 3 3 3 2 2 2 2 2 2 2 2 2 2 2
3 3 3 3 3 3 3 2 2 3 3 3 3 4 6 6 6 6 5 2 2 2 2 2 2 3 3 3 3 3 3 2 2 2 2 2 2 1 1 2 1 2 2
3 5 4 2 2 2 2 2 2 2 2 2 3 3 4 4 3 3 3 2 2 2 2 2 2 3 3 3 3 2 2 2 2 2 2 2 1 1 1 1 1 1 1
2 3 4 3 2 2 2 2 2 2 2 2 3 3 4 3 3 3 2 2 2 2 3 3 3 3 3 3 2 2 2 2 2 1 2 2 1 1 1 1 1 1 1
2 2 2 2 2 2 2 2 2 1 2 2 3 3 5 3 2 2 2 3 3 3 2 3 3 3 3 3 2 2 2 2 2 1 2 2 2 1 1 0 0 1 1
1 2 2 2 2 2 2 1 1 1 2 2 2 2 3 2 2 3 3 3 3 3 3 2 3 3 3 2 2 2 2 3 2 2 2 2 1 1 0 0 0 0 0
1 1 2 2 1 1 1 1 1 2 2 2 2 2 2 2 2 3 3 3 3 3 3 3 3 4 4 3 2 2 3 3 3 2 2 1 1 0 0 0 0 0 0
1 1 1 1 1 1 1 1 1 2 2 2 2 2 2 2 3 3 3 3 3 3 4 3 3 3 4 4 3 3 3 3 2 2 1 1 1 0 0 0 0 0 0
1 1 1 1 1 1 1 1 2 2 2 2 2 2 2 2 3 3 3 3 3 3 4 3 4 4 4 4 4 3 3 3 2 1 0 1 1 1 1 1 1 0 0
Wind_Direction
153 165 163 213 232 230 245 258 253 255 257 254 258 261 263 262 257 248 249 248 249 258 261 261 264 266 269 268 260 259 258 256 271 286 288 291 291 294 303 303 300 298 297
152 147 154 133 32 254 268 275 272 275 273 263 258 263 267 267 263 261 262 259 253 261 267 268 272 275 273 276 268 262 262 260 263 282 294 297 291 291 295 298 303 303 299
103 121 111 67 34 310 298 303 298 289 291 297 270 260 266 270 269 264 263 269 263 261 265 266 272 273 277 277 276 272 269 274 267 274 288 295 294 297 298 297 295 298 301
70 85 75 335 308 297 303 309 311 303 303 310 296 277 272 276 275 271 273 278 280 275 269 267 270 266 268 272 276 273 272 276 275 276 285 293 295 295 295 300 305 303 299
52 44 352 326 334 338 331 323 321 314 307 303 300 303 300 290 278 282 276 278 281 289 287 280 277 275 275 277 279 277 276 275 278 280 284 291 293 300 297 296 297 303 300
43 17 353 350 350 339 323 325 331 323 315 312 296 299 301 297 305 309 308 297 293 291 295 295 288 286 291 294 293 292 286 277 274 274 281 282 285 285 287 289 295 303 303
25 12 5 350 341 323 321 335 325 312 309 311 310 303 298 302 315 320 320 314 297 293 295 300 303 302 303 295 297 301 299 292 283 273 274 277 281 283 283 285 285 286 284
19 12 7 356 342 330 324 319 309 303 304 303 302 300 302 309 322 327 328 327 311 299 296 293 292 297 296 299 297 301 302 303 294 284 269 273 275 278 271 273 281 287 289
10 1 354 350 341 334 324 312 309 310 309 308 312 305 304 309 323 329 330 331 322 310 306 303 297 294 299 306 306 301 304 305 311 309 305 301 298 295 294 296 301 306 304
339 330 329 333 329 317 305 303 306 308 306 312 317 313 299 299 316 330 331 320 316 314 317 313 310 310 313 314 306 299 301 305 313 320 323 322 319 315 314 298 284 287 296
325 332 337 330 319 308 308 310 313 322 325 322 317 315 309 308 318 325 325 319 302 306 311 313 311 317 323 327 322 305 297 302 306 311 312 314 317 322 326 325 311 278 282
336 341 339 331 325 327 321 313 316 322 329 324 321 322 325 326 327 322 322 316 309 302 298 302 305 318 324 325 324 321 322 323 316 319 320 322 322 321 321 326 326 319 297
341 333 329 330 329 322 315 312 317 322 319 316 318 318 322 326 327 329 329 324 317 308 295 302 312 322 327 329 330 327 328 328 325 323 320 314 308 306 316 324 336 342 341
328 321 322 325 328 332 329 326 314 307 305 306 309 308 310 315 321 325 324 324 319 310 304 312 323 332 333 329 329 332 333 324 316 307 303 302 308 322 330 330 328 332 344
319 315 321 323 319 324 327 322 315 293 286 289 282 282 294 301 305 311 312 310 302 285 298 312 327 330 333 332 330 330 329 326 322 311 308 313 323 329 332 334 337 345 354
312 310 308 311 311 316 322 327 333 326 325 320 307 297 295 294 304 311 312 313 313 302 302 302 304 303 303 311 317 321 319 317 312 309 308 309 317 324 334 346 350 353 345
285 293 296 299 300 306 310 313 321 335 340 338 331 324 318 316 321 322 322 322 319 315 313 300 298 297 299 307 309 304 303 305 303 303 304 307 312 322 334 341 342 342 336
286 291 292 284 283 288 291 294 294 303 317 324 330 331 332 338 342 341 342 347 346 343 326 306 306 305 305 305 302 300 301 306 306 305 304 307 309 316 327 325 323 326 326
287 284 282 280 279 283 286 288 288 291 296 310 319 327 336 337 340 344 348 352 334 329 323 315 309 305 300 295 294 298 299 301 307 306 308 309 313 317 314 313 318 339 344
285 288 290 286 282 287 292 291 290 288 291 300 308 315 328 334 336 339 342 338 330 319 315 310 306 301 296 288 290 296 299 303 308 302 300 305 305 299 292 299 308 322 331
280 288 296 294 283 280 281 283 283 283 283 292 300 306 314 320 315 322 328 328 320 311 307 306 302 301 295 289 291 294 297 298 295 295 296 295 297 297 293 291 304 333 354
278 287 288 281 282 283 285 286 288 292 296 295 305 315 318 323 320 322 323 324 318 314 305 300 298 297 290 287 288 282 281 282 283 287 294 301 306 297 291 298 348 1 25
281 295 300 293 289 292 309 314 312 313 306 300 306 315 320 324 324 320 320 319 322 320 322 312 302 303 305 293 281 259 262 266 261 255 267 289 296 307 325 352 347 10 34
289 289 291 291 290 291 305 313 310 309 305 304 304 309 316 321 320 318 317 319 319 321 321 317 308 308 310 308 300 282 267 260 259 251 243 248 262 284 25 80 357 340 154
308 301 295 285 283 288 306 307 304 303 303 302 304 310 314 314 313 313 316 318 318 319 317 317 317 313 310 305 303 295 283 280 283 271 239 209 179 189 156 136 126 87 337
323 322 315 312 315 310 302 293 291 296 299 301 308 312 312 312 314 316 318 321 323 322 319 322 323 320 318 313 307 306 303 306 315 301 198 157 150 166 153 136 129 103 62
Height
1470 1471 1472 1472 1472 1472 1471 1471 1471 1471 1471 1470 1470 1470 1469 1469 1468 1468 1468 1467 1466 1465 1465 1464 1463 1463 1462 1461 1460 1459 1457 1455 1451 1446 1445 1442 1440 1438 1435 1433 1430 1428 1425
1468 1469 1469 1469 1469 1469 1468 1468 1468 1467 1467 1466 1466 1465 1465 1464 1464 1463 1462 1462 1461 1460 1460 1459 1459 1458 1457 1456 1454 1453 1451 1450 1447 1442 1439 1437 1435 1433 1430 1427 1424 1422 1420
1466 1466 1467 1467 1466 1466 1466 1465 1464 1464 1463 1463 1462 1461 1461 1460 1460 1459 1458 1457 1456 1455 1455 1454 1454 1453 1451 1450 1449 1447 1446 1444 1442 1439 1435 1432 1430 1428 1425 1422 1419 1417 1414
1464 1464 1464 1464 1464 1463 1463 1462 1462 1461 1460 1459 1458 1457 1457 1456 1455 1455 1454 1453 1452 1451 1450 1450 1449 1448 1446 1445 1444 1442 1441 1439 1437 1435 1431 1428 1425 1423 1420 1417 1413 1411 1409
1462 1462 1461 1461 1461 1461 1460 1459 1458 1457 1456 1455 1454 1454 1453 1452 1452 1451 1450 1449 1448 1447 1446 1445 1444 1443 1442 1441 1439 1437 1436 1434 1432 1430 1427 1423 1420 1418 1416 1413 1410 1406 1403
1460 1459 1459 1459 1458 1457 1457 1456 1455 1454 1453 1452 1451 1450 1449 1449 1448 1447 1446 1445 1444 1442 1441 1440 1439 1438 1437 1436 1435 1433 1432 1430 1427 1425 1422 1419 1416 1414 1412 1409 1406 1403 1398
1458 1457 1456 1456 1455 1454 1454 1453 1452 1451 1450 1449 1448 1447 1446 1445 1444 1443 1442 1441 1440 1439 1437 1436 1434 1433 1433 1431 1429 1428 1427 1425 1424 1421 1418 1415 1412 1410 1408 1405 1403 1400 1396
1455 1455 1454 1453 1452 1451 1451 1450 1449 1448 1447 1446 1445 1444 1443 1442 1441 1440 1439 1438 1436 1435 1434 1432 1431 1429 1428 1427 1425 1423 1421 1419 1418 1416 1413 1410 1408 1406 1404 1402 1399 1396 1394
1453 1452 1452 1451 1450 1449 1448 1447 1446 1445 1444 1443 1442 1441 1439 1439 1438 1437 1436 1434 1432 1431 1430 1429 1427 1425 1424 1423 1421 1418 1416 1414 1413 1411 1408 1406 1404 1402 1400 1398 1395 1393 1389
1451 1451 1450 1449 1448 1447 1446 1445 1444 1443 1441 1440 1439 1438 1437 1435 1435 1434 1433 1431 1429 1427 1426 1425 1423 1422 1420 1419 1417 1414 1412 1410 1408 1406 1404 1402 1400 1398 1396 1394 1392 1390 1387
1449 1449 1448 1447 1446 1445 1444 1443 1441 1440 1439 1438 1436 1435 1434 1433 1432 1430 1430 1428 1426 1425 1423 1421 1420 1418 1417 1415 1414 1412 1409 1408 1405 1403 1400 1398 1396 1394 1392 1391 1389 1388 1386
1447 1446 1445 1444 1443 1442 1441 1440 1439 1438 1436 1435 1433 1432 1431 1430 1428 1427 1426 1425 1424 1422 1420 1418 1417 1415 1414 1412 1410 1409 1407 1405 1403 1400 1398 1395 1393 1391 1389 1388 1387 1385 1383
1444 1443 1442 1441 1441 1440 1438 1437 1436 1435 1433 1432 1430 1429 1427 1426 1425 1424 1423 1421 1420 1419 1417 1415 1414 1412 1411 1409 1407 1406 1404 1402 1400 1397 1395 1393 1391 1389 1388 1386 1385 1383 1381
1442 1441 1440 1438 1437 1437 1436 1434 1433 1432 1430 1429 1427 1426 1424 1423 1422 1421 1419 1418 1417 1415 1414 1412 1411 1409 1408 1406 1404 1403 1401 1399 1398 1395 1393 1391 1390 1388 1386 1385 1383 1381 1380
1439 1438 1437 1436 1434 1433 1432 1431 1430 1429 1428 1427 1425 1424 1422 1420 1419 1418 1417 1415 1414 1412 1411 1409 1408 1406 1405 1403 1402 1400 1399 1397 1395 1393 1392 1390 1388 1386 1385 1383 1382 1380 1379
1435 1435 1434 1432 1431 1430 1428 1428 1427 1426 1425 1423 1422 1421 1419 1418 1416 1415 1414 1412 1411 1410 1408 1406 1405 1403 1402 1401 1399 1398 1396 1395 1393 1391 1390 1388 1387 1385 1384 1382 1381 1379 1378
1432 1431 1430 1429 1428 1427 1425 1424 1422 1422 1421 1420 1419 1417 1416 1415 1413 1412 1410 1409 1408 1407 1405 1403 1402 1401 1400 1398 1397 1396 1394 1393 1391 1389 1388 1387 1385 1384 1383 1381 1380 1379 1377
1429 1428 1427 1426 1425 1424 1422 1421 1420 1418 1417 1416 1415 1414 1413 1412 1410 1409 1407 1406 1404 1404 1402 1401 1400 1399 1398 1396 1395 1394 1392 1391 1389 1388 1386 1385 1384 1383 1382 1380 1379 1378 1377
1426 1425 1424 1423 1422 1421 1419 1418 1417 1416 1414 1413 1412 1411 1410 1409 1408 1406 1405 1404 1402 1401 1400 1399 1398 1397 1395 1394 1393 1392 1390 1389 1387 1386 1385 1384 1382 1381 1380 1379 1378 1378 1377
1423 1422 1421 1420 1418 1417 1416 1415 1414 1413 1411 1410 1409 1408 1407 1406 1405 1404 1403 1401 1400 1399 1397 1396 1395 1395 1393 1392 1391 1390 1388 1387 1386 1385 1384 1383 1381 1380 1379 1378 1378 1377 1376
1420 1418 1418 1416 1415 1414 1413 1412 1411 1410 1409 1408 1407 1407 1406 1405 1403 1402 1401 1399 1398 1397 1396 1394 1393 1392 1391 1390 1389 1388 1387 1386 1385 1384 1383 1382 1381 1380 1379 1378 1378 1377 1376
1417 1416 1414 1413 1412 1411 1410 1409 1408 1408 1407 1406 1405 1404 1404 1403 1401 1400 1399 1397 1396 1395 1394 1393 1391 1390 1389 1388 1387 1386 1385 1384 1383 1383 1382 1381 1380 1379 1379 1378 1378 1377 1376
1414 1413 1412 1411 1410 1409 1408 1407 1406 1405 1405 1404 1403 1402 1402 1400 1399 1398 1397 1395 1394 1393 1392 1391 1390 1389 1388 1387 1386 1385 1384 1383 1382 1382 1381 1380 1380 1379 1379 1378 1378 1377 1377
1411 1410 1409 1408 1407 1407 1406 1405 1404 1404 1403 1402 1401 1401 1400 1399 1397 1396 1395 1394 1393 1391 1390 1389 1388 1387 1386 1385 1384 1384 1383 1382 1381 1381 1380 1380 1379 1379 1379 1378 1378 1378 1377
1409 1408 1407 1406 1406 1405 1404 1403 1403 1402 1401 1401 1400 1399 1398 1397 1396 1395 1393 1392 1391 1390 1389 1387 1386 1385 1384 1384 1383 1382 1382 1381 1381 1380 1380 1379 1379 1379 1379 1378 1378 1378 1378
1407 1406 1406 1405 1404 1404 1403 1402 1402 1401 1400 1400 1399 1398 1397 1396 1395 1393 1392 1391 1390 1388 1387 1386 1385 1384 1383 1382 1382 1381 1381 1380 1380 1380 1379 1379 1379 1379 1379 1379 1378 1378 1378